{"data":{"norad_id":66631,"intl_designator":"2025-271Q","name":"STARLINK-35965","alt_names":[],"object_type":"PAYLOAD","status":"ACTIVE","operator":null,"country":"US","launch_date":"2025-11-23","launch_site_code":"AFWTR","launch_vehicle":null,"mission":null,"orbit_class":"UNKNOWN","rcs_meters":null,"size_class":null,"mass_kg":null,"dimensions":null,"purposes":["comms"],"wikipedia_slug":null,"has_3d_model":false,"image_url":null,"decayed_at":null,"tle_current":{"epoch":"2026-05-24T23:45:59.717664Z","epoch_age_seconds":86602,"freshness":"FRESH","line1":"1 66631U 25271Q   26144.99027451  .00012457  00000+0  37914-3 0  9998","line2":"2 66631  53.1595 143.7499 0001380 104.9159 255.1996 15.34405601 29265","mean_motion":15.34405601,"eccentricity":0.000138,"inclination_deg":53.1595,"raan_deg":143.7499,"arg_perigee_deg":104.9159,"mean_anomaly_deg":255.1996,"bstar":0.00037914,"rev_number":2926,"period_min":93.847415511357,"perigee_km":461.74255924957,"apogee_km":463.63062656121,"semimajor_km":6840.8235929054,"source":"CELESTRAK","updated_at":"2026-05-25T13:38:21.296765Z"}}}